Weather History for Port Angeles, WA

Change the Weather History Date:

Thursday, October 24, 2013

  Actual Average Record
Temperature  
Mean Temperature 44 °F -  
Max Temperature 52 °F 55 °F 68 °F (1992)
Min Temperature 37 °F 41 °F 32 °F (1961)
Degree Days  
Heating Degree Days 20    
Moisture  
Dew Point 44 °F    
Average Humidity 95    
Maximum Humidity 100    
Minimum Humidity 82    
Precipitation  
Precipitation 0.00 in - - ()
Sea Level Pressure  
Sea Level Pressure 30.06 in    
Wind  
Wind Speed 3 mph (West)    
Max Wind Speed 10 mph    
Max Gust Speed -    
Visibility 3 miles    
Events Fog    
Averages and records for this station are not official NWS values.
T = Trace of Precipitation, MM = Missing Value Source: NWS Daily Summary

Daily Weather History Graph

Daily Weather History Graph

Search for Another Location

Airport:

Trip Planner

Search our weather history database for the weather conditions in past years. The results will help you decide how hot, cold, wet, or windy it might be!

Date:

Astronomy

Oct. 24, 2013 Rise Set
Actual Time 7:47 AM PDT 6:08 PM PDT
Civil Twilight 7:15 AM PDT 6:39 PM PDT
Nautical Twilight 6:39 AM PDT 7:16 PM PDT
Astronomical Twilight 6:03 AM PDT 7:52 PM PDT
Moon 10:28 PM PDT (10/24) 1:02 PM PDT (10/24)
Length of Visible Light 11h 24m
Length of Day
10h 20m
Waning Gibbous, 70% of the Moon is Illuminated
Oct 24
Waning Gibbous
Oct 26
Last Quarter
Nov 3
New
Nov 9
First Quarter
Nov 17
Full

Hourly Weather History & Observations

Time (PDT) Temp. Windchill Dew Point Humidity Pressure Visibility Wind Dir Wind Speed Gust Speed Precip Events Conditions
12:50 AM 41.0 °F 39.0 °F 39.2 °F 93% 30.03 in 0.5 mi WSW 3.5 mph - N/A Fog Fog
12:53 AM 41.0 °F 39.0 °F 39.9 °F 96% 30.04 in 0.5 mi West 3.5 mph - N/A Fog Fog
1:09 AM 41.0 °F - 39.9 °F 96% 30.03 in 0.2 mi Calm Calm - N/A Fog Fog
1:23 AM 39.9 °F - 39.0 °F 97% 30.04 in 1.0 mi Calm Calm - N/A   Mist
1:29 AM 37.9 °F - 37.0 °F 97% 30.04 in 3.0 mi Calm Calm - N/A   Scattered Clouds
1:53 AM 39.0 °F - 37.9 °F 96% 30.04 in 10.0 mi Calm Calm - N/A   Clear
2:02 AM 39.9 °F - 37.9 °F 93% 30.04 in 5.0 mi Calm Calm - N/A   Partly Cloudy
2:33 AM 37.9 °F - 36.0 °F 93% 30.04 in 10.0 mi Calm Calm - N/A   Mostly Cloudy
2:40 AM 37.9 °F 34.4 °F 36.0 °F 93% 30.04 in 1.2 mi WNW 4.6 mph - N/A   Mostly Cloudy
2:45 AM 39.9 °F 37.8 °F 37.9 °F 93% 30.04 in 0.2 mi West 3.5 mph - N/A Fog Fog
2:53 AM 41.0 °F 39.0 °F 41.0 °F 100% 30.05 in 0.2 mi West 3.5 mph - N/A Fog Fog
3:53 AM 41.0 °F 38.0 °F 41.0 °F 100% 30.05 in 0.2 mi SW 4.6 mph - N/A Fog Fog
4:53 AM 42.1 °F 38.4 °F 42.1 °F 100% 30.06 in 0.2 mi WSW 5.8 mph - N/A Fog Fog
5:39 AM 43.0 °F 40.3 °F 42.1 °F 97% 30.05 in 0.5 mi WSW 4.6 mph - N/A Fog Fog
5:53 AM 42.1 °F 39.2 °F 42.1 °F 100% 30.05 in 0.5 mi WSW 4.6 mph - N/A Fog Fog
6:01 AM 42.1 °F 39.2 °F 41.0 °F 96% 30.05 in 0.2 mi WSW 4.6 mph - N/A Fog Fog
6:10 AM 42.1 °F 38.4 °F 41.0 °F 96% 30.05 in 0.5 mi WSW 5.8 mph - N/A Fog Fog
6:32 AM 42.1 °F 39.2 °F 42.1 °F 100% 30.05 in 0.2 mi West 4.6 mph - N/A Fog Fog
6:51 AM 42.8 °F 40.1 °F 41.0 °F 93% 30.05 in 0.5 mi WSW 4.6 mph - N/A Fog Fog
6:53 AM 42.1 °F 39.2 °F 41.0 °F 96% 30.06 in 0.5 mi SW 4.6 mph - N/A Fog Fog
7:11 AM 42.1 °F 39.2 °F 41.0 °F 96% 30.05 in 0.2 mi WSW 4.6 mph - N/A Fog Fog
7:18 AM 42.1 °F 39.2 °F 41.0 °F 96% 30.05 in 0.5 mi WSW 4.6 mph - N/A Fog Fog
7:25 AM 42.1 °F 39.2 °F 41.0 °F 96% 30.05 in 0.2 mi WSW 4.6 mph - N/A Fog Fog
7:39 AM 42.1 °F 39.2 °F 41.0 °F 96% 30.05 in 0.5 mi WSW 4.6 mph - N/A Fog Fog
7:53 AM 42.1 °F 39.2 °F 41.0 °F 96% 30.06 in 0.2 mi WSW 4.6 mph - N/A Fog Fog
8:53 AM 43.0 °F 41.3 °F 42.1 °F 97% 30.07 in 0.2 mi WSW 3.5 mph - N/A Fog Fog
9:53 AM 45.0 °F 42.6 °F 44.1 °F 97% 30.08 in 0.2 mi West 4.6 mph - N/A Fog Fog
10:53 AM 46.9 °F - 46.0 °F 97% 30.08 in 0.2 mi WNW 4.6 mph - N/A Fog Fog
11:49 AM 46.4 °F 45.2 °F 46.4 °F 100% 30.07 in 0.2 mi North 3.5 mph - N/A Fog Fog
11:53 AM 46.9 °F - 46.0 °F 97% 30.09 in 0.2 mi North 5.8 mph - N/A Fog Fog
12:21 PM 48.0 °F - 46.9 °F 96% 30.08 in 0.5 mi NW 4.6 mph - N/A Fog Fog
12:35 PM 48.0 °F - 46.9 °F 96% 30.08 in 0.2 mi NW 3.5 mph - N/A Fog Fog
12:53 PM 48.0 °F - 46.9 °F 96% 30.08 in 0.2 mi WNW 4.6 mph - N/A Fog Fog
1:04 PM 48.0 °F - 46.9 °F 96% 30.07 in 0.8 mi Calm Calm - N/A   Mist
1:12 PM 48.0 °F - 46.9 °F 96% 30.07 in 1.8 mi West 3.5 mph - N/A   Overcast
1:15 PM 48.0 °F - 46.9 °F 96% 30.07 in 3.0 mi Calm Calm - N/A   Overcast
1:53 PM 50.0 °F - 48.0 °F 93% 30.07 in 10.0 mi North 4.6 mph - N/A   Mostly Cloudy
2:08 PM 52.0 °F - 48.0 °F 86% 30.06 in 10.0 mi North 4.6 mph - N/A   Partly Cloudy
2:40 PM 51.1 °F - 48.0 °F 89% 30.05 in 6.0 mi WNW 5.8 mph - N/A   Mostly Cloudy
2:53 PM 48.9 °F - 46.9 °F 93% 30.06 in 4.0 mi WNW 6.9 mph - N/A   Mostly Cloudy
2:57 PM 48.9 °F - 46.0 °F 90% 30.05 in 1.5 mi WNW 9.2 mph - N/A   Overcast
3:06 PM 48.0 °F - 46.9 °F 96% 30.05 in 0.5 mi NW 5.8 mph - N/A Fog Fog
3:18 PM 48.0 °F - 46.9 °F 96% 30.05 in 0.2 mi NW 6.9 mph - N/A Fog Fog
3:25 PM 48.0 °F - 46.9 °F 96% 30.05 in 0.5 mi NW 6.9 mph - N/A Fog Fog
3:53 PM 48.0 °F - 46.9 °F 96% 30.06 in 0.5 mi NW 4.6 mph - N/A Fog Fog
4:13 PM 48.0 °F - 46.9 °F 96% 30.05 in 0.2 mi NW 5.8 mph - N/A Fog Fog
4:35 PM 48.9 °F - 48.0 °F 97% 30.05 in 1.0 mi West 3.5 mph - N/A   Mist
4:39 PM 48.9 °F - 48.0 °F 97% 30.04 in 3.0 mi WNW 3.5 mph - N/A   Mostly Cloudy
4:51 PM 51.8 °F - 46.4 °F 82% 30.04 in 10.0 mi WNW 5.8 mph - N/A   Scattered Clouds
4:53 PM 51.1 °F - 46.9 °F 86% 30.05 in 10.0 mi WNW 5.8 mph - N/A   Partly Cloudy
5:53 PM 50.0 °F - 46.9 °F 89% 30.06 in 10.0 mi WNW 8.1 mph - N/A   Clear
6:53 PM 50.0 °F - 46.9 °F 89% 30.06 in 10.0 mi WNW 10.4 mph - N/A   Clear
7:53 PM 48.0 °F - 46.0 °F 93% 30.07 in 10.0 mi WSW 4.6 mph - N/A   Clear
8:14 PM 46.9 °F - 45.0 °F 93% 30.07 in 1.8 mi Calm Calm - N/A   Clear
8:34 PM 45.0 °F 43.5 °F 44.1 °F 97% 30.07 in 4.0 mi West 3.5 mph - N/A   Clear
8:53 PM 46.0 °F 44.8 °F 45.0 °F 96% 30.08 in 10.0 mi WSW 3.5 mph - N/A   Scattered Clouds
9:03 PM 46.9 °F - 46.0 °F 97% 30.08 in 10.0 mi West 3.5 mph - N/A   Mostly Cloudy
9:53 PM 48.0 °F - 46.0 °F 93% 30.10 in 9.0 mi Calm Calm - N/A   Overcast
10:00 PM 48.0 °F - 46.0 °F 93% 30.10 in 2.5 mi NW 3.5 mph - N/A   Overcast
10:06 PM 46.9 °F - 46.0 °F 97% 30.10 in 0.8 mi Calm Calm - N/A   Overcast
10:21 PM 46.9 °F - 46.9 °F 100% 30.10 in 0.2 mi NW 3.5 mph - N/A Fog Fog
10:37 PM 48.0 °F - 46.9 °F 96% 30.10 in 0.5 mi Calm Calm - N/A Fog Fog
10:49 PM 48.2 °F - 46.4 °F 93% 30.10 in 1.8 mi Calm Calm - N/A   Overcast
10:53 PM 48.0 °F - 46.9 °F 96% 30.11 in 1.8 mi Calm Calm - N/A   Overcast
11:09 PM 48.0 °F - 46.9 °F 96% 30.10 in 2.5 mi Calm Calm - N/A   Overcast
11:33 PM 48.0 °F - 46.9 °F 96% 30.11 in 6.0 mi WSW 4.6 mph - N/A   Overcast
11:44 PM 48.9 °F - 46.9 °F 93% 30.11 in 10.0 mi West 4.6 mph - N/A   Overcast
11:53 PM 48.9 °F - 46.9 °F 93% 30.12 in 10.0 mi West 4.6 mph - N/A   Overcast